Kalamazoo, MI

10:08 PM EST on January 23, 2018 (GMT -0500)
Kalamazoo-Battle Creek International

Weather History for KAZO - October, 2010

Change the Weather History Date:

Friday, October 1, 2010

  Actual Average Record
Temperature  
Mean Temperature 54 °F 56 °F  
Max Temperature 69 °F 66 °F 88 °F (1971)
Min Temperature 41 °F 46 °F 32 °F (1960)
Degree Days  
Heating Degree Days 10 10  
Month to date heating degree days 10  
Since 1 July heating degree days 159  
Cooling Degree Days 0 1  
Month to date cooling degree days 1  
Year to date cooling degree days 668  
Growing Degree Days 4 (Base 50)    
Moisture  
Dew Point 44 °F    
Average Humidity 68    
Maximum Humidity 93    
Minimum Humidity 44    
Precipitation  
Precipitation 0.00 in 0.11 in 0.96 in (1977)
Month to date precipitation 0.11  
Year to date precipitation 27.52  
Sea Level Pressure  
Sea Level Pressure 30.06 in    
Wind  
Wind Speed 3 mph (West)    
Max Wind Speed 9 mph    
Max Gust Speed 18 mph    
Visibility 10 miles    
Events Rain    
T = Trace of Precipitation, MM = Missing Value Source: NWS Daily Summary

Daily Weather History Graph

Daily Weather History Graph

Search for Another Location

Airport or City:

Trip Planner

Search our weather history database for the weather conditions in past years. The results will help you decide how hot, cold, wet, or windy it might be!

Date:

Astronomy

Oct. 01, 2010 Rise Set
Actual Time 7:39 AM EDT 7:23 PM EDT
Civil Twilight 7:11 AM EDT 7:51 PM EDT
Nautical Twilight 6:38 AM EDT 8:24 PM EDT
Astronomical Twilight 6:05 AM EDT 8:56 PM EDT
Moon 12:07 AM EDT (10/1) 3:36 PM EDT (10/1)
Length of Visible Light 12h 40m
Length of Day
11h 44m
Last Quarter, 44% of the Moon is Illuminated
Oct 1
Last Quarter
Oct 7
New
Oct 14
First Quarter
Oct 22
Full
Oct 30
Last Quarter

Hourly Weather History & Observations

Time (EDT) Temp. Dew Point Humidity Pressure Visibility Wind Dir Wind Speed Gust Speed Precip Events Conditions
12:53 AM 48.0 °F 42.1 °F 80% 30.04 in 10.0 mi NNW 5.8 mph - N/A   Clear
1:53 AM 46.9 °F 43.0 °F 86% 30.05 in 10.0 mi Calm Calm - N/A   Clear
2:53 AM 46.0 °F 43.0 °F 89% 30.07 in 10.0 mi Calm Calm - N/A   Clear
3:53 AM 44.1 °F 42.1 °F 93% 30.08 in 10.0 mi Calm Calm - N/A   Clear
4:53 AM 44.1 °F 42.1 °F 93% 30.08 in 10.0 mi Calm Calm - N/A   Clear
5:53 AM 43.0 °F 41.0 °F 93% 30.09 in 10.0 mi Calm Calm - N/A   Clear
6:53 AM 43.0 °F 41.0 °F 93% 30.10 in 10.0 mi Calm Calm - N/A   Clear
7:53 AM 41.0 °F 39.0 °F 93% 30.12 in 10.0 mi Calm Calm - N/A   Clear
8:53 AM 48.9 °F 45.0 °F 86% 30.12 in 10.0 mi Calm Calm - N/A   Clear
9:53 AM 55.9 °F 46.0 °F 69% 30.12 in 10.0 mi Calm Calm - N/A   Clear
10:53 AM 60.1 °F 45.0 °F 57% 30.12 in 10.0 mi NW 4.6 mph - N/A   Clear
11:53 AM 63.0 °F 43.0 °F 48% 30.12 in 10.0 mi WNW 9.2 mph - N/A   Clear
12:53 PM 64.9 °F 44.1 °F 47% 30.11 in 10.0 mi Variable 6.9 mph - N/A   Partly Cloudy
1:53 PM 64.9 °F 45.0 °F 48% 30.09 in 10.0 mi Variable 5.8 mph - N/A   Scattered Clouds
2:53 PM 68.0 °F 46.9 °F 47% 30.06 in 10.0 mi NNW 8.1 mph - N/A   Mostly Cloudy
3:53 PM 66.9 °F 44.1 °F 44% 30.04 in 10.0 mi WNW 6.9 mph 16.1 mph N/A   Mostly Cloudy
4:53 PM 66.0 °F 44.1 °F 45% 30.03 in 10.0 mi West 8.1 mph 18.4 mph N/A   Mostly Cloudy
5:53 PM 64.9 °F 43.0 °F 45% 30.03 in 10.0 mi WNW 8.1 mph - N/A   Scattered Clouds
6:53 PM 62.1 °F 43.0 °F 50% 30.02 in 10.0 mi West 4.6 mph - N/A   Partly Cloudy
7:53 PM 61.0 °F 44.1 °F 54% 30.01 in 10.0 mi Calm Calm - N/A   Overcast
8:53 PM 59.0 °F 46.9 °F 64% 29.99 in 10.0 mi SSE 3.5 mph - N/A   Mostly Cloudy
9:53 PM 59.0 °F 46.9 °F 64% 29.98 in 10.0 mi SSE 3.5 mph - 0.00 in Rain Light Rain
10:53 PM 57.0 °F 50.0 °F 77% 29.95 in 10.0 mi ESE 3.5 mph - 0.00 in   Overcast
11:53 PM 57.0 °F 46.9 °F 69% 29.94 in 10.0 mi SSW 6.9 mph - N/A   Overcast